[[{"header":{"parameterUnit":"m.s-1","parameterCategory":1,"la1":30.2991,"la2":30.254,"lo1":-89.0895,"lo2":-89.0444,"dy":0.0017,"dx":0.0017,"nx":28,"ny":28,"refTime":"2025-04-19T09:00:00:Z","depth":0,"parameterNumber":2,"parameterNumberName":"U-component_of_WINDS"},"data":[0,0,0,0,0,0,0,0,0,0,0,0,0,0,0,0,0,0,0,0,0,0,0,0,0,0,0,0,0,0,0,0,0,0,0,0,0,0,0,0,0,0,0,0,0,0,0,0,0,0,0,0,0,0,0,0,0,0,-5.1373,-5.1373,0,-5.1402,-5.1402,-5.1403,-5.1333,-5.1331,-5.1329,-5.1327,-5.1356,-5.1359,-5.1362,0,0,0,0,0,0,0,0,0,0,0,0,0,-5.1256,-5.1259,-5.1373,-5.1373,-5.1374,-5.1402,-5.1402,-5.1403,-5.1334,-5.1331,-5.1329,-5.1326,-5.1355,-5.1359,-5.1362,0,0,0,0,0,0,0,0,0,0,0,0,0,-5.1298,-5.126,-5.1373,-5.1343,-5.134,-5.1402,-5.1402,-5.1403,-5.1334,-5.1331,-5.1328,-5.1325,-5.1354,-5.1358,-5.1362,-5.1454,0,0,-5.1375,-5.1377,0,0,0,0,0,0,0,0,-5.1296,-5.1303,-5.1347,-5.1345,-5.1342,-5.1361,-5.1372,-5.142,-5.1335,-5.1337,-5.1327,-5.1323,-5.136,-5.1364,-5.1376,-5.1456,-5.1457,-5.1376,-5.1378,-5.138,-5.1381,0,0,0,0,0,0,0,-5.1293,-5.1301,-5.1384,-5.1347,-5.1345,-5.1327,-5.133,-5.1381,-5.1366,-5.1336,-5.1331,-5.1336,-5.1358,-5.1373,-5.1377,-5.1457,-5.1376,-5.1379,-5.1382,-5.1384,-5.1611,-5.1614,0,0,0,0,0,0,-5.1294,-5.1299,-5.1383,-5.1385,-5.1311,-5.1332,-5.1335,-5.1358,-5.1366,-5.1364,-5.1338,-5.1332,-5.1367,-5.1372,-5.1377,-5.1483,-5.138,-5.1384,-5.1386,-5.1608,-5.1612,-5.1616,0,0,0,0,0,0,-5.1292,-5.1303,-5.1382,-5.1341,-5.135,-5.1338,-5.1364,-5.136,-5.1374,-5.1367,-5.1364,-5.1356,-5.1365,-5.1371,-5.1435,-5.1483,-5.1386,-5.139,-5.1604,-5.1609,-5.1614,-5.1697,0,0,0,0,0,0,-5.1289,-5.1302,-5.1337,-5.1342,-5.1352,-5.144,-5.1367,-5.1363,-5.1382,-5.1374,-5.1383,-5.1381,-5.1362,-5.1429,-5.1439,-5.1487,-5.1393,-5.1599,-5.1606,-5.1612,-5.169,-5.1705,-5.1717,0,0,0,0,0,-5.1285,-5.136,-5.1339,-5.135,-5.1396,-5.1443,-5.1449,-5.1426,-5.1386,-5.1421,-5.1416,-5.1381,-5.1477,-5.1436,-5.1447,-5.1497,-5.1596,-5.1604,-5.1612,-5.1684,-5.1702,-5.1717,0,0,0,0,0,0,-5.1361,-5.136,-5.1337,-5.1416,-5.143,-5.1431,-5.1474,-5.1446,-5.1472,-5.1463,-5.1434,-5.1437,-5.1506,-5.1508,-5.1463,-5.1586,-5.153,-5.154,-5.1581,-5.1598,-5.1611,-5.1608,-5.1397,0,0,0,0,0,-5.1387,-5.1426,-5.1423,-5.1492,-5.1501,-5.1487,-5.1506,-5.1488,-5.1501,-5.1507,-5.1507,-5.1521,-5.1554,-5.1577,-5.1607,-5.1691,-5.1691,-5.1731,-5.1745,-5.1756,-5.1764,-5.1807,-5.1824,-5.1642,-5.1642,-5.1641,0,0,-5.1441,-5.1445,-5.1471,-5.1508,-5.1516,-5.1556,-5.1492,-5.1538,-5.1566,-5.1514,-5.1573,-5.1574,-5.1588,-5.1662,-5.1694,-5.1666,-5.1815,-5.1766,-5.1775,-5.1777,-5.1817,-5.1834,-5.1849,-5.1647,-5.1646,-5.1645,0,0,-5.1558,-5.1567,-5.1624,-5.1635,-5.1649,-5.1639,-5.1653,-5.1658,-5.1657,-5.1716,-5.1677,-5.1711,-5.177,-5.178,-5.1793,-5.1915,-5.1883,-5.1926,-5.1996,-5.2038,-5.2053,-5.2065,-5.2106,-5.2122,-5.1935,-5.1936,-5.1936,0,-5.1623,-5.1682,-5.1658,-5.1705,-5.1722,-5.1676,-5.1734,-5.1745,-5.1768,-5.178,-5.1749,-5.182,-5.1827,-5.1901,-5.1931,-5.1944,-5.1958,-5.1924,-5.2053,-5.2065,-5.2076,-5.2115,-5.2131,-5.1941,-5.194,-5.194,-5.1939,0,-5.176,-5.1801,-5.1846,-5.187,-5.1892,-5.1944,-5.1927,-5.1952,-5.1932,-5.1925,-5.1986,-5.1992,-5.2022,-5.2039,-5.202,-5.2111,-5.2092,-5.2058,-5.2,-5.2099,-5.2135,-5.215,-5.1948,-5.1946,-5.1945,-5.1943,0,0,-5.1925,-5.1934,-5.195,-5.196,-5.1972,-5.2003,-5.2054,-5.2083,-5.2104,-5.2122,-5.2162,-5.2213,-5.218,-5.2195,-5.2177,-5.2214,-5.2308,-5.2174,-5.2174,-5.2197,-5.2405,-5.243,-5.2448,-5.2287,-5.229,-5.2292,-5.2403,0,-5.2039,-5.2125,-5.2104,-5.2189,-5.2226,-5.2183,-5.2227,-5.2239,-5.2234,-5.2265,-5.2259,-5.2294,-5.225,-5.2258,-5.2294,-5.2289,-5.2349,-5.2281,-5.2323,-5.2324,-5.2318,-5.2467,-5.2493,-5.2597,-5.2418,-5.242,-5.2422,0,-5.2184,-5.2206,-5.2295,-5.23,-5.2314,-5.2354,-5.2378,-5.2409,-5.2421,-5.2415,-5.2432,-5.2406,-5.2455,-5.2399,-5.2465,-5.2419,-5.2435,-5.2436,-5.2439,-5.244,-5.2377,-5.2469,-5.2631,-5.2645,-5.2444,-5.2442,-5.2441,0,-5.2292,-5.2345,-5.2404,-5.2414,-5.2422,-5.245,-5.2455,-5.2464,-5.2482,-5.2504,-5.2515,-5.2543,-5.2557,-5.2579,-5.2561,-5.2522,-5.2629,-5.2572,-5.2624,-5.2624,-5.2646,-5.2644,-5.2809,-5.2661,-5.2661,-5.266,-5.266,0,-5.242,-5.2476,-5.2453,-5.2489,-5.2549,-5.2525,-5.2585,-5.2585,-5.2593,-5.2628,-5.2594,-5.2627,-5.2602,-5.2633,-5.262,-5.2675,-5.2683,-5.2678,-5.2673,-5.268,-5.268,-5.2688,-5.2679,-5.2665,-5.2664,-5.2663,-5.2662,0,-5.2551,-5.2538,-5.2599,-5.2601,-5.2603,-5.2647,-5.2649,-5.2682,-5.2675,-5.2719,-5.2728,-5.2717,-5.2752,-5.2737,-5.2774,-5.2764,-5.2835,-5.2822,-5.283,-5.2826,-5.2877,-5.2872,-5.3051,-5.3073,-5.2913,-5.2914,-5.2916,0,-5.2632,-5.2673,-5.268,-5.2701,-5.2707,-5.2742,-5.276,-5.2738,-5.2759,-5.2776,-5.2806,-5.2838,-5.2862,-5.2919,-5.2914,-5.2942,-5.2927,-5.2989,-5.2931,-5.2936,-5.2925,-5.2922,-5.2925,-5.2999,-5.3001,-5.3003,-5.3004,0,-5.2778,-5.2769,-5.2797,-5.2823,-5.2846,-5.2865,-5.2881,-5.29,-5.2879,-5.2904,-5.2938,-5.2957,-5.2994,-5.3025,-5.305,-5.3054,-5.3025,-5.3022,-5.3035,-5.3041,-5.3043,-5.304,-5.2859,-5.3018,-5.3016,-5.3015,-5.3014,-5.3014,-5.2884,-5.2918,-5.2928,-5.2959,-5.2969,-5.2985,-5.3016,-5.3013,-5.3041,-5.3069,-5.3055,-5.3095,-5.3105,-5.3135,-5.3143,-5.3173,-5.3149,-5.3168,-5.3173,-5.3177,-5.3183,-5.304,-5.3178,-5.3178,-5.3177,-5.3177,-5.3176,0,-5.3026,-5.3029,-5.3059,-5.3083,-5.3108,-5.3079,-5.3096,-5.3118,-5.3154,-5.3166,-5.319,-5.3229,-5.3259,-5.3257,-5.3284,-5.3309,-5.3296,-5.3317,-5.3313,-5.3314,-5.3204,-5.3189,-5.3326,-5.3326,-5.3326,-5.3326,-5.3326,-5.3326,-5.3102,-5.3157,-5.315,-5.3209,-5.3212,-5.3251,-5.3263,-5.3277,-5.3286,-5.3331,-5.3356,-5.3354,-5.336,-5.3387,-5.3413,-5.3411,-5.3422,-5.3447,-5.344,-5.3337,-5.3322,-5.3308,-5.3293,-5.345,-5.345,-5.3547,-5.3548,-5.3549]},{"header":{"parameterUnit":"m.s-1","parameterCategory":1,"la1":30.2991,"la2":30.254,"lo1":-89.0895,"lo2":-89.0444,"dy":0.0017,"dx":0.0017,"nx":28,"ny":28,"refTime":"2025-04-19T09:00:00:Z","depth":0,"parameterNumber":3,"parameterNumberName":"V-component_of_WINDS"},"data":[0,0,0,0,0,0,0,0,0,0,0,0,0,0,0,0,0,0,0,0,0,0,0,0,0,0,0,0,0,0,0,0,0,0,0,0,0,0,0,0,0,0,0,0,0,0,0,0,0,0,0,0,0,0,0,0,0,0,4.1176,4.1175,0,4.1114,4.1114,4.1113,4.1032,4.1031,4.103,4.1028,4.0964,4.0963,4.0963,0,0,0,0,0,0,0,0,0,0,0,0,0,4.1222,4.1222,4.1176,4.1175,4.1174,4.1114,4.1114,4.1113,4.1032,4.1031,4.1029,4.1028,4.0964,4.0963,4.0963,0,0,0,0,0,0,0,0,0,0,0,0,0,4.1185,4.1221,4.1176,4.1127,4.1122,4.1115,4.1114,4.1112,4.1033,4.1031,4.1029,4.1027,4.0964,4.0963,4.0963,4.0998,0,0,4.0961,4.096,0,0,0,0,0,0,0,0,4.1188,4.1184,4.1135,4.113,4.1125,4.1079,4.1106,4.1074,4.1033,4.1067,4.1028,4.1026,4.1004,4.1,4.0992,4.0995,4.0992,4.096,4.096,4.096,4.096,0,0,0,0,0,0,0,4.119,4.1186,4.1151,4.1134,4.1128,4.1108,4.11,4.11,4.1047,4.1063,4.1057,4.1051,4.1,4.0993,4.099,4.0991,4.0961,4.096,4.0959,4.0959,4.1019,4.1021,0,0,0,0,0,0,4.12,4.1189,4.1153,4.1149,4.1152,4.1108,4.11,4.1096,4.1047,4.1037,4.1053,4.1048,4.0995,4.0991,4.0988,4.1025,4.096,4.0959,4.0959,4.1017,4.102,4.1022,0,0,0,0,0,0,4.1202,4.1198,4.1156,4.1167,4.116,4.111,4.1105,4.1095,4.1088,4.1039,4.1029,4.1056,4.0994,4.0989,4.0996,4.1022,4.0959,4.0958,4.1015,4.1018,4.1021,4.1101,0,0,0,0,0,0,4.1203,4.1199,4.1212,4.1168,4.116,4.1166,4.1107,4.1096,4.1087,4.108,4.1039,4.103,4.0992,4.0998,4.0995,4.102,4.0958,4.1012,4.1016,4.102,4.1096,4.1106,4.1115,0,0,0,0,0,4.1205,4.1237,4.1213,4.1209,4.1176,4.1167,4.1163,4.1119,4.109,4.1102,4.1071,4.1031,4.102,4.0999,4.0996,4.102,4.101,4.1015,4.1019,4.1091,4.1104,4.1115,0,0,0,0,0,0,4.1284,4.123,4.1203,4.1222,4.12,4.1154,4.1168,4.1134,4.1119,4.1113,4.1059,4.105,4.1064,4.1043,4.1021,4.1052,4.1009,4.1013,4.1065,4.1077,4.1086,4.1091,4.0957,0,0,0,0,0,4.1304,4.1302,4.1255,4.1276,4.1266,4.122,4.1214,4.1182,4.1157,4.1148,4.1116,4.1093,4.1084,4.1079,4.1068,4.1093,4.1082,4.1108,4.1118,4.1126,4.113,4.1141,4.1151,4.1037,4.1037,4.1037,0,0,4.1344,4.1314,4.1317,4.1291,4.127,4.1269,4.1212,4.1214,4.1212,4.1147,4.1152,4.1129,4.11,4.1116,4.1121,4.1098,4.116,4.1132,4.1139,4.1138,4.1147,4.1157,4.1167,4.104,4.1039,4.1039,0,0,4.1417,4.1395,4.141,4.139,4.136,4.1329,4.1332,4.1292,4.1274,4.1278,4.123,4.1227,4.1213,4.1194,4.1182,4.1249,4.1211,4.1247,4.1298,4.1309,4.1318,4.1325,4.1348,4.1357,4.1251,4.1251,4.1251,0,4.1471,4.1468,4.1421,4.1426,4.1416,4.1358,4.1372,4.1356,4.1323,4.1317,4.1293,4.1274,4.125,4.126,4.1277,4.1269,4.1271,4.125,4.132,4.1328,4.1334,4.1355,4.1364,4.1255,4.1255,4.1255,4.1254,0,4.1535,4.1534,4.155,4.152,4.1512,4.1521,4.1476,4.1473,4.1442,4.1414,4.1419,4.1388,4.137,4.137,4.134,4.1376,4.1363,4.133,4.1286,4.135,4.1369,4.1377,4.1262,4.126,4.1259,4.1258,0,0,4.1655,4.1601,4.1607,4.1593,4.1556,4.1553,4.156,4.1543,4.1541,4.1521,4.1525,4.1515,4.1484,4.1471,4.1438,4.1448,4.1502,4.1414,4.1412,4.1431,4.154,4.1564,4.1574,4.1478,4.1479,4.148,4.1542,0,4.1721,4.1729,4.1688,4.1707,4.1705,4.1651,4.1656,4.1634,4.1608,4.1602,4.1572,4.1565,4.1526,4.1518,4.1525,4.1494,4.1523,4.1489,4.148,4.148,4.1488,4.1584,4.161,4.167,4.1549,4.155,4.1551,0,4.1798,4.1782,4.1802,4.1763,4.1761,4.1767,4.1747,4.1743,4.1716,4.1696,4.1682,4.1644,4.1648,4.1607,4.161,4.1588,4.1582,4.1566,4.1567,4.1564,4.1519,4.1583,4.1688,4.1697,4.1563,4.1562,4.1561,0,4.1883,4.1867,4.1876,4.1866,4.1821,4.1827,4.1808,4.178,4.1772,4.1755,4.1749,4.1733,4.1724,4.1712,4.1671,4.1645,4.1679,4.1635,4.1662,4.1663,4.1671,4.1671,4.1776,4.1669,4.1669,4.1668,4.1668,0,4.1959,4.1973,4.1914,4.1919,4.1933,4.1885,4.19,4.1876,4.1852,4.1851,4.1803,4.1804,4.175,4.1744,4.1712,4.172,4.1716,4.1699,4.169,4.1703,4.1705,4.1698,4.1692,4.1671,4.167,4.167,4.1669,0,4.2056,4.2017,4.2024,4.1981,4.1971,4.1983,4.1946,4.1949,4.192,4.1921,4.1918,4.1872,4.1863,4.1821,4.1802,4.178,4.1799,4.1782,4.1808,4.1802,4.1832,4.1829,4.1935,4.1946,4.1833,4.1834,4.1835,0,4.2108,4.2117,4.2076,4.2072,4.2056,4.2052,4.2044,4.1997,4.1991,4.1961,4.1968,4.1955,4.1943,4.1931,4.1896,4.1881,4.1862,4.19,4.186,4.1872,4.1862,4.1862,4.1862,4.1909,4.191,4.1912,4.1913,0,4.2202,4.2183,4.2173,4.2157,4.2149,4.2134,4.2116,4.2116,4.2064,4.206,4.205,4.2041,4.2021,4.2009,4.1989,4.1969,4.1932,4.1926,4.1931,4.1944,4.1959,4.1951,4.1831,4.1923,4.1922,4.1922,4.1921,4.1921,4.2277,4.2283,4.2255,4.2246,4.2228,4.2213,4.2214,4.2185,4.2176,4.2157,4.213,4.2125,4.2097,4.2066,4.2049,4.2044,4.2023,4.2031,4.2033,4.2035,4.2041,4.1961,4.204,4.2039,4.2039,4.2039,4.2038,0,4.2369,4.2349,4.2341,4.2318,4.2311,4.2278,4.2256,4.2252,4.2248,4.2226,4.2215,4.2204,4.2192,4.2156,4.214,4.2143,4.2125,4.214,4.2139,4.2135,4.2061,4.2058,4.2154,4.2154,4.2154,4.2154,4.2154,4.2154,4.2416,4.2424,4.2401,4.24,4.2379,4.2373,4.2364,4.2349,4.2331,4.2321,4.2311,4.2288,4.226,4.2242,4.2229,4.2219,4.2215,4.2235,4.222,4.2151,4.214,4.213,4.2126,4.2235,4.2235,4.2293,4.2294,4.2294]}]]